,,,PA_Meas_PMT16A,,PR_Meas_QMR101_102,,RH_Meas_QMH101,,SR_Meas_QMS101,,TA_Meas_QMH101,,GenWind,,GenWind,
date,time,status,PA,status,PR,status,RH,status,SR,status,TA,status,DirAvg,status,SpdAvg,
2012-03-23, 00:00:04,VALID,1005.64,VALID,0,VALID,90.6769,VALID,0,VALID,25.3565,VALID,353,VALID,0.720703,
2012-03-23, 00:01:04,VALID,1005.63,VALID,0,VALID,90.5472,VALID,0,VALID,25.3974,VALID,353,VALID,0.740625,
2012-03-23, 00:02:04,VALID,1005.63,VALID,0,VALID,90.5396,VALID,0,VALID,25.4169,VALID,353,VALID,0.424219,
2012-03-23, 00:03:04,VALID,1005.59,VALID,0,VALID,90.4556,VALID,0,VALID,25.4363,VALID,349,VALID,0.798047,
2012-03-23, 00:04:04,VALID,1005.59,VALID,0,VALID,90.2802,VALID,0,VALID,25.4558,VALID,350,VALID,0.782422,
2012-03-23, 00:05:04,VALID,1005.55,VALID,0,VALID,90.1505,VALID,0,VALID,25.4928,VALID,346,VALID,0.802734,
2012-03-23, 00:06:04,VALID,1005.57,VALID,0,VALID,89.9826,VALID,0,VALID,25.5142,VALID,351,VALID,0.593359,
2012-03-23, 00:07:04,VALID,1005.52,VALID,0,VALID,89.853,VALID,0,VALID,25.5318,VALID,12,VALID,0.383984,
2012-03-23, 00:08:04,VALID,1005.51,VALID,0,VALID,89.7767,VALID,0,VALID,25.5727,VALID,360,VALID,0.562891,
2012-03-23, 00:09:04,VALID,1005.5,VALID,0,VALID,89.7461,VALID,0,VALID,25.5921,VALID,360,VALID,0.373828,
2012-03-23, 00:10:04,VALID,1005.5,VALID,0,VALID,89.7614,VALID,0,VALID,25.5902,VALID,360,VALID,0.375,
2012-03-23, 00:11:04,VALID,1005.46,VALID,0,VALID,89.7309,VALID,0,VALID,25.6116,VALID,360,VALID,0.233984,
2012-03-23, 00:12:04,VALID,1005.47,VALID,0,VALID,89.7767,VALID,0,VALID,25.5902,VALID,360,VALID,0.188672,
2012-03-23, 00:13:04,VALID,1005.44,VALID,0,VALID,89.7461,VALID,0,VALID,25.5902,VALID,360,VALID,0.226953,
2012-03-23, 00:14:04,VALID,1005.43,VALID,0,VALID,89.8453,VALID,0,VALID,25.5707,VALID,360,VALID,0.144922,
2012-03-23, 00:15:04,VALID,1005.43,VALID,0,VALID,89.8453,VALID,0,VALID,25.5513,VALID,360,VALID,0,
2012-03-23, 00:16:04,VALID,1005.41,VALID,0,VALID,89.853,VALID,0,VALID,25.5727,VALID,360,VALID,0,
2012-03-23, 00:17:04,VALID,1005.39,VALID,0,VALID,89.8758,VALID,0,VALID,25.5532,VALID,8,VALID,0.567187,
2012-03-23, 00:18:04,VALID,1005.35,VALID,0,VALID,89.914,VALID,0,VALID,25.5532,VALID,8,VALID,0,
2012-03-23, 00:19:04,VALID,1005.36,VALID,0,VALID,89.975,VALID,0,VALID,25.5123,VALID,8,VALID,0.00820312,
2012-03-23, 00:20:04,VALID,1005.36,VALID,0,VALID,90.0589,VALID,0,VALID,25.5337,VALID,8,VALID,0.272266,
2012-03-23, 00:21:04,VALID,1005.31,VALID,0,VALID,90.181,VALID,0,VALID,25.5142,VALID,8,VALID,0.00195313,
2012-03-23, 00:22:04,VALID,1005.28,VALID,0,VALID,90.2573,VALID,0,VALID,25.4539,VALID,8,VALID,0.253516,
2012-03-23, 00:23:04,VALID,1005.27,VALID,0,VALID,90.387,VALID,0,VALID,25.4558,VALID,8,VALID,0.00351562,
2012-03-23, 00:24:04,VALID,1005.24,VALID,0,VALID,90.5472,VALID,0,VALID,25.4558,VALID,8,VALID,0.469531,
2012-03-23, 00:25:04,VALID,1005.18,VALID,0,VALID,90.6998,VALID,0,VALID,25.4169,VALID,8,VALID,0.408984,
2012-03-23, 00:26:04,VALID,1005.19,VALID,0,VALID,90.8676,VALID,0,VALID,25.3955,VALID,8,VALID,0.50625,
2012-03-23, 00:27:04,VALID,1005.16,VALID,0,VALID,90.9057,VALID,0,VALID,25.3565,VALID,8,VALID,0.5125,
2012-03-23, 00:28:04,VALID,1005.15,VALID,0,VALID,91.0278,VALID,0,VALID,25.337,VALID,359,VALID,0.720703,
2012-03-23, 00:29:04,VALID,1005.12,VALID,0,VALID,91.1499,VALID,0,VALID,25.339,VALID,357,VALID,0.783203,
2012-03-23, 00:30:04,VALID,1005.1,VALID,0,VALID,91.3024,VALID,0,VALID,25.3,VALID,357,VALID,0.613281,
2012-03-23, 00:31:04,VALID,1005.08,VALID,0,VALID,91.3787,VALID,0,VALID,25.2806,VALID,356,VALID,0.732031,
2012-03-23, 00:32:04,VALID,1005.07,VALID,0,VALID,91.5161,VALID,0,VALID,25.2611,VALID,356,VALID,0.435547,
2012-03-23, 00:33:04,VALID,1005.02,VALID,0,VALID,91.6152,VALID,0,VALID,25.2397,VALID,356,VALID,0.479688,
2012-03-23, 00:34:04,VALID,1005.06,VALID,0,VALID,91.7602,VALID,0,VALID,25.2221,VALID,356,VALID,0.3625,
2012-03-23, 00:35:04,VALID,1005.04,VALID,0,VALID,91.8441,VALID,0,VALID,25.2007,VALID,356,VALID,0.272266,
2012-03-23, 00:36:04,VALID,1005.01,VALID,0,VALID,91.9128,VALID,0,VALID,25.1813,VALID,356,VALID,0.400391,
2012-03-23, 00:37:04,VALID,1005.02,VALID,0,VALID,91.9662,VALID,0,VALID,25.2027,VALID,354,VALID,0.58125,
2012-03-23, 00:38:04,VALID,1005.04,VALID,0,VALID,91.8975,VALID,0,VALID,25.2027,VALID,354,VALID,0.562891,
2012-03-23, 00:39:04,VALID,1005,VALID,0,VALID,91.8441,VALID,0,VALID,25.2221,VALID,353,VALID,0.332422,
2012-03-23, 00:40:04,VALID,1005.03,VALID,0,VALID,91.7678,VALID,0,VALID,25.2202,VALID,353,VALID,0.4875,
2012-03-23, 00:41:04,VALID,1004.99,VALID,0,VALID,91.6915,VALID,0,VALID,25.2416,VALID,353,VALID,0,
2012-03-23, 00:42:04,VALID,1005,VALID,0,VALID,91.6457,VALID,0,VALID,25.2416,VALID,353,VALID,0,
2012-03-23, 00:43:04,VALID,1005.01,VALID,0,VALID,91.5923,VALID,0,VALID,25.2416,VALID,353,VALID,0,
2012-03-23, 00:44:04,VALID,1005.01,VALID,0,VALID,91.6152,VALID,0,VALID,25.2416,VALID,354,VALID,0.508984,
2012-03-23, 00:45:04,VALID,1005.03,VALID,0,VALID,91.5695,VALID,0,VALID,25.2611,VALID,352,VALID,0.185156,
2012-03-23, 00:46:04,VALID,1005.01,VALID,0,VALID,91.5389,VALID,0,VALID,25.2592,VALID,352,VALID,0,
2012-03-23, 00:47:04,VALID,1005.01,VALID,0,VALID,91.5084,VALID,0,VALID,25.2806,VALID,352,VALID,0,
2012-03-23, 00:48:04,VALID,1004.96,VALID,0,VALID,91.4932,VALID,0,VALID,25.2611,VALID,352,VALID,0,
2012-03-23, 00:49:04,VALID,1005,VALID,0,VALID,91.5237,VALID,0,VALID,25.3019,VALID,350,VALID,0,
2012-03-23, 00:50:04,VALID,1004.96,VALID,0,VALID,91.5389,VALID,0,VALID,25.2806,VALID,350,VALID,0,
2012-03-23, 00:51:04,VALID,1004.97,VALID,0,VALID,91.5542,VALID,0,VALID,25.2806,VALID,350,VALID,0,
2012-03-23, 00:52:04,VALID,1004.96,VALID,0,VALID,91.5389,VALID,0,VALID,25.2611,VALID,350,VALID,0,
2012-03-23, 00:53:04,VALID,1004.92,VALID,0,VALID,91.6305,VALID,0,VALID,25.2611,VALID,350,VALID,0,
2012-03-23, 00:54:04,VALID,1004.9,VALID,0,VALID,91.6686,VALID,0,VALID,25.2416,VALID,355,VALID,0,
2012-03-23, 00:55:04,VALID,1004.92,VALID,0,VALID,91.7373,VALID,0.0815089,VALID,25.1794,VALID,360,VALID,0,
2012-03-23, 00:56:04,VALID,1004.9,VALID,0,VALID,91.7678,VALID,0.0815089,VALID,25.2007,VALID,360,VALID,0,
2012-03-23, 00:57:04,VALID,1004.9,VALID,0,VALID,91.8288,VALID,0,VALID,25.1813,VALID,360,VALID,0,
2012-03-23, 00:58:04,VALID,1004.89,VALID,0,VALID,91.8746,VALID,0,VALID,25.1832,VALID,360,VALID,0,
2012-03-23, 00:59:04,VALID,1004.92,VALID,0,VALID,91.928,VALID,0.0815089,VALID,25.1423,VALID,360,VALID,0,
2012-03-23, 01:00:04,VALID,1004.88,VALID,0,VALID,91.989,VALID,0.0815089,VALID,25.1423,VALID,360,VALID,0,
2012-03-23, 01:01:04,VALID,1004.9,VALID,0,VALID,92.0424,VALID,0.0815089,VALID,25.1229,VALID,360,VALID,0,
2012-03-23, 01:02:04,VALID,1004.93,VALID,0,VALID,92.0882,VALID,0,VALID,25.082,VALID,360,VALID,0,
2012-03-23, 01:03:04,VALID,1004.91,VALID,0,VALID,92.1187,VALID,0,VALID,25.1034,VALID,359,VALID,0,
2012-03-23, 01:04:04,VALID,1004.91,VALID,0,VALID,92.1492,VALID,0,VALID,25.082,VALID,339,VALID,0.653125,
2012-03-23, 01:05:04,VALID,1004.92,VALID,0,VALID,92.1416,VALID,0.0815089,VALID,25.1034,VALID,339,VALID,0.457812,
2012-03-23, 01:06:04,VALID,1004.92,VALID,0,VALID,92.1721,VALID,0.0815089,VALID,25.1034,VALID,339,VALID,0.493359,
2012-03-23, 01:07:04,VALID,1004.9,VALID,0,VALID,92.2179,VALID,0.0815089,VALID,25.0839,VALID,339,VALID,0.530859,
2012-03-23, 01:08:04,VALID,1004.86,VALID,0,VALID,92.2561,VALID,0.0815089,VALID,25.1034,VALID,339,VALID,0.605078,
2012-03-23, 01:09:04,VALID,1004.92,VALID,0,VALID,92.3095,VALID,0,VALID,25.0839,VALID,340,VALID,0.431641,
2012-03-23, 01:10:04,VALID,1004.88,VALID,0,VALID,92.3476,VALID,0.0815089,VALID,25.0839,VALID,340,VALID,0.34375,
2012-03-23, 01:11:04,VALID,1004.86,VALID,0,VALID,92.4239,VALID,0,VALID,25.045,VALID,340,VALID,0.379687,
2012-03-23, 01:12:04,VALID,1004.86,VALID,0,VALID,92.4391,VALID,0.0815089,VALID,25.045,VALID,340,VALID,0.409766,
2012-03-23, 01:13:04,VALID,1004.84,VALID,0,VALID,92.4925,VALID,0,VALID,25.0255,VALID,340,VALID,0.390625,
2012-03-23, 01:14:04,VALID,1004.83,VALID,0,VALID,92.5765,VALID,0.0815089,VALID,25.0255,VALID,340,VALID,0.327734,
2012-03-23, 01:15:04,VALID,1004.83,VALID,0,VALID,92.6451,VALID,0.0815089,VALID,24.9652,VALID,340,VALID,0.367969,
2012-03-23, 01:16:04,VALID,1004.8,VALID,0,VALID,92.7214,VALID,0,VALID,25.0274,VALID,340,VALID,0.471875,
2012-03-23, 01:17:04,VALID,1004.81,VALID,0,VALID,92.6985,VALID,0,VALID,25.0079,VALID,340,VALID,0.0308594,
2012-03-23, 01:18:04,VALID,1004.81,VALID,0,VALID,92.7443,VALID,0.0815089,VALID,24.9866,VALID,340,VALID,0,
2012-03-23, 01:19:04,VALID,1004.83,VALID,0,VALID,92.729,VALID,0.0815089,VALID,24.9866,VALID,340,VALID,0,
2012-03-23, 01:20:04,VALID,1004.85,VALID,0,VALID,92.7367,VALID,0.0815089,VALID,24.9652,VALID,340,VALID,0,
2012-03-23, 01:21:04,VALID,1004.82,VALID,0,VALID,92.7519,VALID,0.0815089,VALID,25.0041,VALID,346,VALID,0,
2012-03-23, 01:22:04,VALID,1004.87,VALID,0,VALID,92.6146,VALID,0.0815089,VALID,25.0431,VALID,1,VALID,0.198047,
2012-03-23, 01:23:04,VALID,1004.84,VALID,0,VALID,92.3934,VALID,0,VALID,25.1034,VALID,3,VALID,0.330469,
2012-03-23, 01:24:04,VALID,1004.84,VALID,0,VALID,92.2789,VALID,0,VALID,25.1229,VALID,9,VALID,0.190625,
2012-03-23, 01:25:04,VALID,1004.84,VALID,0,VALID,92.0806,VALID,0,VALID,25.1229,VALID,8,VALID,0.43125,
2012-03-23, 01:26:04,VALID,1004.82,VALID,0,VALID,91.8746,VALID,0,VALID,25.1832,VALID,8,VALID,0.375,
2012-03-23, 01:27:04,VALID,1004.79,VALID,0,VALID,91.7449,VALID,0,VALID,25.1618,VALID,8,VALID,0.657422,
2012-03-23, 01:28:04,VALID,1004.77,VALID,0,VALID,91.4016,VALID,0,VALID,25.2416,VALID,356,VALID,0.877344,
2012-03-23, 01:29:04,VALID,1004.79,VALID,0,VALID,91.1422,VALID,0,VALID,25.3019,VALID,354,VALID,0.558594,
2012-03-23, 01:30:04,VALID,1004.8,VALID,0,VALID,90.921,VALID,0,VALID,25.3195,VALID,353,VALID,0.592578,
2012-03-23, 01:31:04,VALID,1004.79,VALID,0,VALID,90.8523,VALID,0,VALID,25.339,VALID,353,VALID,0.510938,
2012-03-23, 01:32:04,VALID,1004.74,VALID,0,VALID,90.8066,VALID,0,VALID,25.3195,VALID,353,VALID,0.413672,
2012-03-23, 01:33:04,VALID,1004.76,VALID,0,VALID,90.8218,VALID,0,VALID,25.2981,VALID,8,VALID,0.433984,
2012-03-23, 01:34:04,VALID,1004.75,VALID,0,VALID,90.6692,VALID,0,VALID,25.3195,VALID,351,VALID,0.761328,
2012-03-23, 01:35:04,VALID,1004.72,VALID,0,VALID,90.5472,VALID,0,VALID,25.2981,VALID,351,VALID,0.496094,
2012-03-23, 01:36:04,VALID,1004.68,VALID,0,VALID,90.2878,VALID,0,VALID,25.3195,VALID,346,VALID,0.626562,
2012-03-23, 01:37:04,VALID,1004.7,VALID,0,VALID,90.2039,VALID,0,VALID,25.3176,VALID,346,VALID,0.569141,
2012-03-23, 01:38:04,VALID,1004.67,VALID,0,VALID,89.9826,VALID,0,VALID,25.3584,VALID,327,VALID,0.499609,
2012-03-23, 01:39:04,VALID,1004.67,VALID,0,VALID,89.8606,VALID,0,VALID,25.3993,VALID,332,VALID,0.561719,
2012-03-23, 01:40:04,VALID,1004.66,VALID,0,VALID,89.7461,VALID,0,VALID,25.3584,VALID,332,VALID,0.432031,
2012-03-23, 01:41:04,VALID,1004.62,VALID,0,VALID,89.7538,VALID,0,VALID,25.3565,VALID,335,VALID,0.506641,
2012-03-23, 01:42:04,VALID,1004.61,VALID,0,VALID,89.6317,VALID,0,VALID,25.3779,VALID,339,VALID,0.84375,
2012-03-23, 01:43:04,VALID,1004.63,VALID,0,VALID,89.5859,VALID,0,VALID,25.3779,VALID,346,VALID,0.485938,
2012-03-23, 01:44:04,VALID,1004.56,VALID,0,VALID,89.6241,VALID,0,VALID,25.3779,VALID,346,VALID,0.396094,
2012-03-23, 01:45:04,VALID,1004.57,VALID,0,VALID,89.7233,VALID,0,VALID,25.3584,VALID,351,VALID,0.292578,
2012-03-23, 01:46:04,VALID,1004.58,VALID,0,VALID,89.8453,VALID,0,VALID,25.3195,VALID,351,VALID,0.101953,
2012-03-23, 01:47:04,VALID,1004.56,VALID,0,VALID,89.914,VALID,0,VALID,25.3,VALID,351,VALID,0,
2012-03-23, 01:48:04,VALID,1004.56,VALID,0,VALID,89.9292,VALID,0,VALID,25.2806,VALID,351,VALID,0,
2012-03-23, 01:49:04,VALID,1004.59,VALID,0,VALID,89.9521,VALID,0,VALID,25.2202,VALID,351,VALID,0,
2012-03-23, 01:50:04,VALID,1004.56,VALID,0,VALID,89.9674,VALID,0,VALID,25.2416,VALID,351,VALID,0.00820312,
2012-03-23, 01:51:04,VALID,1004.55,VALID,0,VALID,89.853,VALID,0,VALID,25.2202,VALID,7,VALID,0.808203,
2012-03-23, 01:52:04,VALID,1004.54,VALID,0,VALID,89.6927,VALID,0,VALID,25.2221,VALID,351,VALID,0.708203,
2012-03-23, 01:53:04,VALID,1004.54,VALID,0,VALID,89.5554,VALID,0,VALID,25.2825,VALID,350,VALID,0.607422,
2012-03-23, 01:54:04,VALID,1004.52,VALID,0,VALID,89.3876,VALID,0,VALID,25.2592,VALID,347,VALID,0.791406,
2012-03-23, 01:55:04,VALID,1004.49,VALID,0,VALID,89.1282,VALID,0,VALID,25.2981,VALID,354,VALID,1.10195,
2012-03-23, 01:56:04,VALID,1004.5,VALID,0,VALID,89.0977,VALID,0,VALID,25.339,VALID,1,VALID,0.467187,
2012-03-23, 01:57:04,VALID,1004.47,VALID,0,VALID,88.9833,VALID,0,VALID,25.339,VALID,1,VALID,0.722656,
2012-03-23, 01:58:04,VALID,1004.47,VALID,0,VALID,88.7773,VALID,0,VALID,25.3604,VALID,349,VALID,0.736328,
2012-03-23, 01:59:04,VALID,1004.45,VALID,0,VALID,88.8993,VALID,0,VALID,25.3584,VALID,349,VALID,0.419922,
2012-03-23, 02:00:04,VALID,1004.43,VALID,0,VALID,88.9451,VALID,0,VALID,25.3584,VALID,349,VALID,0.373828,
2012-03-23, 02:01:04,VALID,1004.41,VALID,0,VALID,89.1206,VALID,0,VALID,25.339,VALID,349,VALID,0,
2012-03-23, 02:02:04,VALID,1004.41,VALID,0,VALID,89.2579,VALID,0,VALID,25.3,VALID,349,VALID,0,
2012-03-23, 02:03:04,VALID,1004.4,VALID,0,VALID,89.1892,VALID,0,VALID,25.3214,VALID,349,VALID,0.436328,
2012-03-23, 02:04:04,VALID,1004.4,VALID,0,VALID,89.3266,VALID,0,VALID,25.3,VALID,354,VALID,0.528906,
2012-03-23, 02:05:04,VALID,1004.39,VALID,0,VALID,89.2884,VALID,0,VALID,25.3,VALID,8,VALID,0.819531,
2012-03-23, 02:06:04,VALID,1004.4,VALID,0,VALID,89.3494,VALID,0,VALID,25.3,VALID,16,VALID,0.471094,
2012-03-23, 02:07:04,VALID,1004.41,VALID,0,VALID,89.2503,VALID,0,VALID,25.3195,VALID,16,VALID,0.441016,
2012-03-23, 02:08:04,VALID,1004.39,VALID,0,VALID,89.3876,VALID,0,VALID,25.2981,VALID,16,VALID,0.275781,
2012-03-23, 02:09:04,VALID,1004.39,VALID,0,VALID,89.3876,VALID,0,VALID,25.3,VALID,16,VALID,0.390625,
2012-03-23, 02:10:04,VALID,1004.38,VALID,0,VALID,89.3647,VALID,0,VALID,25.2786,VALID,3,VALID,0.726172,
2012-03-23, 02:11:04,VALID,1004.36,VALID,0,VALID,89.3266,VALID,0,VALID,25.2806,VALID,353,VALID,0.757031,
2012-03-23, 02:12:04,VALID,1004.32,VALID,0,VALID,89.2732,VALID,0,VALID,25.3,VALID,353,VALID,0.538281,
2012-03-23, 02:13:04,VALID,1004.3,VALID,0,VALID,89.5478,VALID,0,VALID,25.3195,VALID,357,VALID,0.216797,
2012-03-23, 02:14:04,VALID,1004.29,VALID,0,VALID,89.7004,VALID,0,VALID,25.2806,VALID,357,VALID,0.284375,
2012-03-23, 02:15:04,VALID,1004.3,VALID,0,VALID,89.853,VALID,0,VALID,25.2397,VALID,357,VALID,0.201953,
2012-03-23, 02:16:04,VALID,1004.29,VALID,0,VALID,89.8453,VALID,0,VALID,25.2221,VALID,357,VALID,0.444531,
2012-03-23, 02:17:04,VALID,1004.27,VALID,0,VALID,89.8377,VALID,0,VALID,25.2027,VALID,357,VALID,0.351172,
2012-03-23, 02:18:04,VALID,1004.27,VALID,0,VALID,89.6622,VALID,0,VALID,25.2221,VALID,4,VALID,0.462109,
2012-03-23, 02:19:04,VALID,1004.25,VALID,0,VALID,89.4639,VALID,0,VALID,25.2007,VALID,17,VALID,0.398828,
2012-03-23, 02:20:04,VALID,1004.28,VALID,0,VALID,89.4334,VALID,0,VALID,25.2611,VALID,16,VALID,0.360547,
2012-03-23, 02:21:04,VALID,1004.26,VALID,0,VALID,89.0748,VALID,0,VALID,25.2611,VALID,16,VALID,0.652734,
2012-03-23, 02:22:04,VALID,1004.25,VALID,0,VALID,88.762,VALID,0,VALID,25.2806,VALID,16,VALID,0.414453,
2012-03-23, 02:23:04,VALID,1004.28,VALID,0,VALID,88.556,VALID,0,VALID,25.339,VALID,11,VALID,0.489844,
2012-03-23, 02:24:04,VALID,1004.24,VALID,0,VALID,88.495,VALID,0,VALID,25.339,VALID,358,VALID,0.335938,
2012-03-23, 02:25:04,VALID,1004.24,VALID,0,VALID,88.1059,VALID,0,VALID,25.3779,VALID,358,VALID,0.495313,
2012-03-23, 02:26:04,VALID,1004.26,VALID,0,VALID,88.0373,VALID,0,VALID,25.4169,VALID,11,VALID,0.353906,
2012-03-23, 02:27:04,VALID,1004.23,VALID,0,VALID,88.0831,VALID,0,VALID,25.4363,VALID,11,VALID,0.428906,
2012-03-23, 02:28:04,VALID,1004.23,VALID,0,VALID,88.2051,VALID,0,VALID,25.4149,VALID,11,VALID,0.508594,
2012-03-23, 02:29:04,VALID,1004.23,VALID,0,VALID,88.2967,VALID,0,VALID,25.4363,VALID,11,VALID,0.463672,
2012-03-23, 02:30:04,VALID,1004.21,VALID,0,VALID,88.5866,VALID,0,VALID,25.3974,VALID,11,VALID,0.348047,
2012-03-23, 02:31:04,VALID,1004.21,VALID,0,VALID,88.5789,VALID,0,VALID,25.3779,VALID,11,VALID,0.182812,
2012-03-23, 02:32:04,VALID,1004.21,VALID,0,VALID,88.7849,VALID,0,VALID,25.3584,VALID,11,VALID,0,
2012-03-23, 02:33:04,VALID,1004.23,VALID,0,VALID,88.7773,VALID,0,VALID,25.339,VALID,11,VALID,0,
2012-03-23, 02:34:04,VALID,1004.22,VALID,0,VALID,88.8917,VALID,0,VALID,25.3195,VALID,11,VALID,0,
2012-03-23, 02:35:04,VALID,1004.23,VALID,0,VALID,89.0748,VALID,0,VALID,25.2592,VALID,11,VALID,0,
2012-03-23, 02:36:04,VALID,1004.22,VALID,0,VALID,88.9299,VALID,0,VALID,25.2397,VALID,17,VALID,0.0632813,
2012-03-23, 02:37:04,VALID,1004.19,VALID,0,VALID,88.7391,VALID,0,VALID,25.2611,VALID,16,VALID,0,
2012-03-23, 02:38:04,VALID,1004.19,VALID,0,VALID,88.7849,VALID,0,VALID,25.2611,VALID,7,VALID,0.250391,
2012-03-23, 02:39:04,VALID,1004.16,VALID,0,VALID,88.5332,VALID,0,VALID,25.2611,VALID,6,VALID,0.309766,
2012-03-23, 02:40:04,VALID,1004.15,VALID,0,VALID,87.8847,VALID,0,VALID,25.2786,VALID,3,VALID,0.909766,
2012-03-23, 02:41:04,VALID,1004.14,VALID,0,VALID,87.755,VALID,0,VALID,25.2962,VALID,358,VALID,0.604297,
2012-03-23, 02:42:04,VALID,1004.12,VALID,0,VALID,87.7016,VALID,0,VALID,25.3565,VALID,353,VALID,0,
2012-03-23, 02:43:04,VALID,1004.09,VALID,0,VALID,87.549,VALID,0,VALID,25.376,VALID,343,VALID,0.595703,
2012-03-23, 02:44:04,VALID,1004.07,VALID,0,VALID,87.3507,VALID,0.0815089,VALID,25.4149,VALID,343,VALID,0.539453,
2012-03-23, 02:45:04,VALID,1004.06,VALID,0,VALID,87.4651,VALID,0.0815089,VALID,25.413,VALID,343,VALID,0.452344,
2012-03-23, 02:46:04,VALID,1004.03,VALID,0,VALID,87.4117,VALID,0,VALID,25.4325,VALID,344,VALID,0.447656,
2012-03-23, 02:47:04,VALID,1004.03,VALID,0,VALID,87.3507,VALID,0.0815089,VALID,25.4344,VALID,344,VALID,0.584375,
2012-03-23, 02:48:04,VALID,1004.02,VALID,0,VALID,87.2439,VALID,0,VALID,25.4344,VALID,344,VALID,0.715234,
2012-03-23, 02:49:04,VALID,1003.99,VALID,0,VALID,87.3965,VALID,0,VALID,25.4149,VALID,345,VALID,0.43125,
2012-03-23, 02:50:04,VALID,1003.99,VALID,0,VALID,87.5643,VALID,0.0815089,VALID,25.4344,VALID,353,VALID,0.66875,
2012-03-23, 02:51:04,VALID,1003.97,VALID,0,VALID,87.6253,VALID,0.0815089,VALID,25.4149,VALID,355,VALID,0.696875,
2012-03-23, 02:52:04,VALID,1003.97,VALID,0,VALID,87.8008,VALID,0.0815089,VALID,25.3935,VALID,357,VALID,0.462891,
2012-03-23, 02:53:04,VALID,1003.95,VALID,0,VALID,87.8618,VALID,0,VALID,25.3974,VALID,357,VALID,0.202344,
2012-03-23, 02:54:04,VALID,1003.93,VALID,0,VALID,88.022,VALID,0.0815089,VALID,25.3351,VALID,357,VALID,0.383984,
2012-03-23, 02:55:04,VALID,1003.93,VALID,0,VALID,88.228,VALID,0,VALID,25.337,VALID,357,VALID,0.421484,
2012-03-23, 02:56:04,VALID,1003.92,VALID,0,VALID,88.1365,VALID,0.0815089,VALID,25.3176,VALID,356,VALID,0.515234,
2012-03-23, 02:57:04,VALID,1003.9,VALID,0,VALID,88.3043,VALID,0.0815089,VALID,25.2962,VALID,1,VALID,0.660937,
2012-03-23, 02:58:04,VALID,1003.89,VALID,0,VALID,88.3195,VALID,0,VALID,25.339,VALID,3,VALID,0.412891,
2012-03-23, 02:59:04,VALID,1003.87,VALID,0,VALID,88.1517,VALID,0.0815089,VALID,25.3176,VALID,3,VALID,0.546094,
2012-03-23, 03:00:04,VALID,1003.9,VALID,0,VALID,88.0449,VALID,0,VALID,25.3176,VALID,358,VALID,0.479688,
2012-03-23, 03:01:04,VALID,1003.9,VALID,0,VALID,87.9686,VALID,0.0815089,VALID,25.337,VALID,351,VALID,0.469922,
2012-03-23, 03:02:04,VALID,1003.88,VALID,0,VALID,87.8847,VALID,0,VALID,25.3565,VALID,351,VALID,0.712109,
2012-03-23, 03:03:04,VALID,1003.9,VALID,0,VALID,87.816,VALID,0.0815089,VALID,25.376,VALID,351,VALID,0.516406,
2012-03-23, 03:04:04,VALID,1003.88,VALID,0,VALID,87.8313,VALID,0,VALID,25.4149,VALID,351,VALID,0.497656,
2012-03-23, 03:05:04,VALID,1003.87,VALID,0,VALID,87.7169,VALID,0,VALID,25.4149,VALID,351,VALID,0.511328,
2012-03-23, 03:06:04,VALID,1003.86,VALID,0,VALID,87.7321,VALID,0.0815089,VALID,25.4149,VALID,347,VALID,0.425391,
2012-03-23, 03:07:04,VALID,1003.86,VALID,0,VALID,87.5872,VALID,0,VALID,25.4344,VALID,347,VALID,0.603516,
2012-03-23, 03:08:04,VALID,1003.86,VALID,0,VALID,87.488,VALID,0,VALID,25.4344,VALID,349,VALID,0.755469,
2012-03-23, 03:09:04,VALID,1003.85,VALID,0,VALID,87.5261,VALID,0,VALID,25.4753,VALID,7,VALID,0.522656,
2012-03-23, 03:10:04,VALID,1003.89,VALID,0,VALID,87.4804,VALID,0.0815089,VALID,25.4753,VALID,3,VALID,0.436719,
2012-03-23, 03:11:04,VALID,1003.86,VALID,0,VALID,87.4346,VALID,0,VALID,25.4325,VALID,3,VALID,0.34375,
2012-03-23, 03:12:04,VALID,1003.84,VALID,0,VALID,87.8008,VALID,0,VALID,25.4344,VALID,3,VALID,0.218359,
2012-03-23, 03:13:04,VALID,1003.83,VALID,0,VALID,87.961,VALID,0,VALID,25.413,VALID,3,VALID,0.323047,
2012-03-23, 03:14:04,VALID,1003.84,VALID,0,VALID,88.1212,VALID,0.0815089,VALID,25.3955,VALID,3,VALID,0,
2012-03-23, 03:15:04,VALID,1003.84,VALID,0,VALID,88.2738,VALID,0,VALID,25.3565,VALID,3,VALID,0,
2012-03-23, 03:16:04,VALID,1003.81,VALID,0,VALID,88.4492,VALID,0,VALID,25.337,VALID,3,VALID,0,
2012-03-23, 03:17:04,VALID,1003.84,VALID,0,VALID,88.5789,VALID,0,VALID,25.2786,VALID,3,VALID,0,
2012-03-23, 03:18:04,VALID,1003.85,VALID,0,VALID,88.6628,VALID,0,VALID,25.2397,VALID,21,VALID,0.480469,
2012-03-23, 03:19:04,VALID,1003.85,VALID,0,VALID,88.7086,VALID,0.0815089,VALID,25.1988,VALID,35,VALID,0.0539063,
2012-03-23, 03:20:04,VALID,1003.86,VALID,0,VALID,88.762,VALID,0,VALID,25.2202,VALID,35,VALID,0,
2012-03-23, 03:21:04,VALID,1003.86,VALID,0,VALID,88.7849,VALID,0,VALID,25.1599,VALID,35,VALID,0,
2012-03-23, 03:22:04,VALID,1003.9,VALID,0,VALID,88.8841,VALID,0,VALID,25.1813,VALID,35,VALID,0,
2012-03-23, 03:23:04,VALID,1003.9,VALID,0,VALID,89.0443,VALID,0.0815089,VALID,25.1618,VALID,35,VALID,0,
2012-03-23, 03:24:04,VALID,1003.9,VALID,0,VALID,89.1053,VALID,0.0815089,VALID,25.1423,VALID,35,VALID,0,
2012-03-23, 03:25:04,VALID,1003.93,VALID,0,VALID,89.1511,VALID,0,VALID,25.1248,VALID,33,VALID,0,
2012-03-23, 03:26:04,VALID,1003.95,VALID,0,VALID,89.235,VALID,0,VALID,25.1053,VALID,31,VALID,0,
2012-03-23, 03:27:04,VALID,1003.94,VALID,0,VALID,89.2808,VALID,0,VALID,25.0858,VALID,31,VALID,0,
2012-03-23, 03:28:04,VALID,1003.96,VALID,0,VALID,89.3418,VALID,0,VALID,25.0644,VALID,31,VALID,0,
2012-03-23, 03:29:04,VALID,1003.93,VALID,0,VALID,89.4257,VALID,0,VALID,25.0663,VALID,31,VALID,0,
2012-03-23, 03:30:04,VALID,1003.93,VALID,0,VALID,89.5097,VALID,0,VALID,25.045,VALID,31,VALID,0,
2012-03-23, 03:31:04,VALID,1003.92,VALID,0,VALID,89.4257,VALID,0,VALID,25.0469,VALID,33,VALID,0.394141,
2012-03-23, 03:32:04,VALID,1003.9,VALID,0,VALID,89.4181,VALID,0,VALID,25.0682,VALID,33,VALID,0.319531,
2012-03-23, 03:33:04,VALID,1003.95,VALID,0,VALID,89.5707,VALID,0,VALID,25.0469,VALID,33,VALID,0.238672,
2012-03-23, 03:34:04,VALID,1003.9,VALID,0,VALID,89.4715,VALID,0,VALID,25.0274,VALID,32,VALID,0.748828,
2012-03-23, 03:35:04,VALID,1003.9,VALID,0,VALID,89.6241,VALID,0,VALID,25.0469,VALID,33,VALID,0.335156,
2012-03-23, 03:36:04,VALID,1003.9,VALID,0,VALID,89.7461,VALID,0,VALID,25.0663,VALID,32,VALID,0.283594,
2012-03-23, 03:37:04,VALID,1003.9,VALID,0,VALID,89.7614,VALID,0,VALID,25.0255,VALID,32,VALID,0.211328,
2012-03-23, 03:38:04,VALID,1003.89,VALID,0,VALID,89.7233,VALID,0,VALID,25.0079,VALID,33,VALID,0.285156,
2012-03-23, 03:39:04,VALID,1003.88,VALID,0,VALID,89.7385,VALID,0,VALID,25.0274,VALID,33,VALID,0.407031,
2012-03-23, 03:40:04,VALID,1003.84,VALID,0,VALID,89.6851,VALID,0,VALID,25.006,VALID,32,VALID,0.564453,
2012-03-23, 03:41:04,VALID,1003.85,VALID,0,VALID,89.7614,VALID,0,VALID,25.0469,VALID,32,VALID,0.0195313,
2012-03-23, 03:42:04,VALID,1003.86,VALID,0,VALID,89.7919,VALID,0,VALID,25.0488,VALID,32,VALID,0,
2012-03-23, 03:43:04,VALID,1003.84,VALID,0,VALID,89.7614,VALID,0,VALID,25.0488,VALID,32,VALID,0,
2012-03-23, 03:44:04,VALID,1003.86,VALID,0,VALID,89.853,VALID,0,VALID,25.0274,VALID,32,VALID,0,
2012-03-23, 03:45:04,VALID,1003.84,VALID,0,VALID,89.7538,VALID,0,VALID,25.0079,VALID,32,VALID,0,
2012-03-23, 03:46:04,VALID,1003.86,VALID,0,VALID,89.6088,VALID,0,VALID,25.0293,VALID,29,VALID,0.226563,
2012-03-23, 03:47:04,VALID,1003.82,VALID,0,VALID,89.3952,VALID,0,VALID,25.0469,VALID,343,VALID,0.628516,